Home > Weather > Blackpool > Past weeks

Flag for United Kingdom Past Weather in Blackpool, England, United Kingdom — Yesterday and Last 2 Weeks

Now
61 °F

Passing clouds.


Feels Like: 61 °F
Forecast: 52 / 62 °F
Wind: 5 mph from Northwest

Location: Blackpool Airport

Current Time: May 30, 2016 at 12:12:39 AM

Latest Report: May 29, 2016 at 8:50 PM


Visibility: N/A

Pressure: 30.04 "Hg

Humidity: 72%

Dew Point: 52 °F

Location of BlackpoolLocation

Past Weather in Blackpool — Graph

°F

Blackpool Temperature Yesterday

Maximum temperature yesterday: 63 °F (at 5:50 PM)
Minimum temperature yesterday: 50 °F (at 6:20 AM)
Average temperature yesterday: 59 °F

High & Low Weather Summary for the Past Weeks

 TemperatureHumidityPressure
High64 °F (May 28, 3:20 PM)100% (May 21, 6:50 AM)30.24 "Hg (May 21, 6:50 AM)
Low45 °F (May 17, 6:20 AM)48% (May 24, 10:50 AM)29.56 "Hg (May 18, 6:20 AM)
Average56 °F76%29.97 "Hg
* Reported May 14 8:20 PM — May 29 8:50 PM, Blackpool, Weather by CustomWeather, © 2016

Note: Actual official high and low records may vary slightly from our data, if they occured in-between our weather recording intervals... More about our weather records

Advertising

Blackpool Weather History for the Previous 24 Hours

Scroll right to see more
 ConditionsComfort  
Time TempWeatherWind HumidityBarometerVisibility
8:50 PM
Sun, May 29
61 °FPassing clouds.5 mph72%30.04 "HgN/A
8:20 PM61 °FPassing clouds.7 mph72%30.04 "HgN/A
7:50 PM61 °FPassing clouds.9 mph72%30.01 "HgN/A
7:20 PM61 °FPassing clouds.12 mph72%30.01 "HgN/A
6:50 PM61 °FPassing clouds.13 mph72%30.01 "HgN/A
6:20 PM61 °FPassing clouds.10 mph72%30.01 "HgN/A
5:50 PM63 °FPassing clouds.12 mph68%30.01 "HgN/A
5:20 PM61 °FPassing clouds.14 mph72%30.01 "HgN/A
4:50 PM61 °FPassing clouds.14 mph72%30.01 "HgN/A
3:50 PM61 °FPassing clouds.14 mph72%30.01 "HgN/A
3:20 PM61 °FPassing clouds.15 mph72%30.01 "HgN/A
2:50 PM61 °FPassing clouds.15 mph72%30.01 "HgN/A
2:20 PM61 °FPassing clouds.14 mph72%30.01 "HgN/A
1:20 PM61 °FPassing clouds.13 mph72%30.01 "HgN/A
12:20 PM61 °FPassing clouds.12 mph72%30.01 "HgN/A
11:50 AM61 °FPassing clouds.12 mph72%30.01 "HgN/A
11:20 AM61 °FPassing clouds.12 mph68%30.01 "HgN/A
10:20 AM59 °FPassing clouds.12 mph72%30.01 "HgN/A
9:50 AM59 °FSunny.5 mph72%29.98 "Hg10 mi
9:20 AM59 °FSunny.5 mph72%29.98 "Hg10 mi
8:50 AM59 °FSunny.5 mph72%29.98 "Hg10 mi
8:20 AM57 °FSunny.7 mph72%29.98 "Hg10 mi
7:50 AM55 °FSunny.7 mph77%29.98 "Hg10 mi
7:20 AM54 °FSunny.8 mph82%29.98 "Hg10 mi
6:50 AM52 °FCool.8 mph88%30.01 "HgN/A
6:20 AM50 °FScattered clouds.6 mph88%30.01 "HgN/A
Weather by CustomWeather, © 2016

See weather overviewHow to use our weather pages